Voltar ao catálogo

SERVIS 1

AtivoCiênciaSSO
NORAD 28060·PAYLOAD·🇯🇵 Japan

Lançado Oct 30, 2003 de Plesetsk Cosmodrome

Loading…

Próximas Passagens (próximas 24 horas)

TLE

AtualizadoSource: Space-Track

Época: Sep 14, 2026, 11:47 UTC

1 28060U 03050A   26257.49125394  .00000001  00000-0  50200-4 0  9995
2 28060  99.5127 255.4897 0020956 212.4266 311.0337 13.72193025145209

Acompanhe SERVIS 1 em tempo real com AllMySat

Download on the App Store